[[{"header":{"parameterUnit":"m.s-1","parameterCategory":2,"la1":30.2991,"la2":30.254,"lo1":-89.0895,"lo2":-89.0444,"dy":0.0017,"dx":0.0017,"nx":28,"ny":28,"refTime":"2024-05-09T21:00:00:Z","depth":"0","parameterNumber":2,"parameterNumberName":"U-component_of_CURRENTS"},"data":[0,0,0,0,0,0,0,0,0,0,0,0,0,0,0,0,0,0,0,0,0,0,0,0,0,0,0,0,0,0,0,0,0,0,0,0,0,0,0,0,0,0,0,0,0,0,0,0,0,0,0,0,0,0,0,0,0,0,0.4292,0.4293,0,0.4368,0.4368,0.4368,0.4373,0.4372,0.4372,0.4372,0.4341,0.434,0.4339,0,0,0,0,0,0,0,0,0,0,0,0,0,0.4145,0.4147,0.4292,0.4293,0.4295,0.4368,0.4368,0.4368,0.4373,0.4372,0.4372,0.4372,0.4341,0.434,0.4339,0,0,0,0,0,0,0,0,0,0,0,0,0,0.4206,0.4147,0.4291,0.4312,0.4315,0.4368,0.4368,0.4369,0.4373,0.4372,0.4372,0.4372,0.4341,0.434,0.4339,0.4336,0,0,0.4336,0.4335,0,0,0,0,0,0,0,0,0.4202,0.421,0.4307,0.4311,0.4315,0.4368,0.4306,0.4355,0.4373,0.4342,0.4372,0.4372,0.4345,0.4344,0.4348,0.4335,0.4334,0.4336,0.4335,0.4335,0.4334,0,0,0,0,0,0,0,0.4198,0.4207,0.4314,0.4309,0.4314,0.4316,0.4324,0.4315,0.4335,0.4345,0.4347,0.4369,0.4345,0.435,0.4348,0.4333,0.4336,0.4335,0.4334,0.4334,0.4312,0.4312,0,0,0,0,0,0,0.4206,0.4203,0.4311,0.4317,0.4266,0.432,0.4328,0.4344,0.4338,0.434,0.4369,0.4369,0.4351,0.4349,0.4346,0.4337,0.4335,0.4334,0.4333,0.4312,0.4312,0.4312,0,0,0,0,0,0,0.4202,0.4215,0.4308,0.4268,0.4281,0.4323,0.4341,0.4346,0.4355,0.4359,0.4357,0.4375,0.4351,0.4348,0.4342,0.4336,0.4333,0.4332,0.4312,0.4312,0.4312,0.4321,0,0,0,0,0,0,0.4198,0.4213,0.4221,0.4269,0.4284,0.4338,0.4343,0.4348,0.4373,0.4373,0.4363,0.436,0.4351,0.4343,0.434,0.4334,0.4331,0.4312,0.4312,0.4312,0.4321,0.4322,0.4322,0,0,0,0,0,0.4192,0.4197,0.4221,0.4234,0.4297,0.4339,0.4346,0.4369,0.4373,0.4375,0.4372,0.4361,0.4342,0.4343,0.4339,0.4332,0.4311,0.4312,0.4312,0.432,0.4321,0.4322,0,0,0,0,0,0,0.4128,0.4201,0.4227,0.4252,0.4298,0.4343,0.4346,0.4372,0.4374,0.4364,0.4364,0.436,0.4348,0.4343,0.4345,0.4327,0.4324,0.4323,0.4331,0.4332,0.4333,0.4341,0.433,0,0,0,0,0,0.4126,0.4153,0.422,0.4242,0.4259,0.4305,0.4325,0.4346,0.4363,0.4364,0.4365,0.4357,0.4346,0.4343,0.4329,0.4326,0.4348,0.4319,0.4319,0.432,0.4325,0.4373,0.4379,0.4312,0.4312,0.4312,0,0,0.4111,0.4154,0.4171,0.4232,0.426,0.4292,0.4312,0.4338,0.436,0.4357,0.4365,0.4355,0.4344,0.4335,0.4329,0.4332,0.4349,0.432,0.4321,0.4325,0.4374,0.438,0.4386,0.4312,0.4312,0.4312,0,0,0.4102,0.4127,0.4153,0.4191,0.4248,0.4272,0.4284,0.4332,0.4339,0.4357,0.4353,0.4351,0.4341,0.4338,0.4333,0.4333,0.4347,0.4322,0.4337,0.4384,0.439,0.4396,0.4428,0.4437,0.4328,0.4328,0.4328,0,0.4083,0.413,0.4165,0.4202,0.4234,0.4266,0.4298,0.431,0.4352,0.436,0.4355,0.4357,0.4344,0.4345,0.4341,0.4334,0.4362,0.4334,0.4387,0.4393,0.4399,0.4431,0.444,0.4329,0.4329,0.4329,0.4329,0,0.4104,0.4142,0.4151,0.4213,0.4244,0.4269,0.4308,0.4322,0.4334,0.4357,0.436,0.4353,0.4362,0.4351,0.4343,0.437,0.4377,0.4379,0.4388,0.4406,0.4438,0.4448,0.433,0.4329,0.4329,0.4329,0,0,0.4067,0.4152,0.4157,0.4195,0.4253,0.428,0.4301,0.4338,0.4358,0.4368,0.4399,0.4374,0.438,0.4375,0.4369,0.4401,0.4458,0.4409,0.4411,0.4447,0.4561,0.473,0.4757,0.4478,0.448,0.4481,0.4566,0,0.4077,0.414,0.4183,0.4236,0.4271,0.4307,0.4327,0.4359,0.4379,0.4408,0.4399,0.4415,0.4386,0.4397,0.4421,0.4443,0.4485,0.4434,0.4533,0.4535,0.4689,0.4775,0.4547,0.4619,0.4575,0.4577,0.4578,0,0.4089,0.4135,0.4182,0.4262,0.4277,0.4306,0.4352,0.4383,0.4416,0.4433,0.445,0.4455,0.4475,0.4465,0.4521,0.4494,0.4532,0.4554,0.4559,0.4723,0.4725,0.4594,0.4639,0.4496,0.4593,0.4592,0.4591,0,0.4051,0.4138,0.4169,0.4197,0.4276,0.4298,0.4339,0.4383,0.4414,0.4462,0.4501,0.4509,0.4553,0.4572,0.4631,0.4576,0.4729,0.4657,0.4844,0.4854,0.4685,0.4681,0.461,0.4732,0.4732,0.4732,0.4731,0,0.4045,0.408,0.4153,0.4173,0.4211,0.4282,0.432,0.4365,0.4431,0.4482,0.4514,0.458,0.4594,0.4682,0.4677,0.4832,0.4775,0.488,0.4911,0.4685,0.468,0.4572,0.4534,0.4735,0.4734,0.4733,0.4733,0,0.4,0.4045,0.4095,0.4172,0.4194,0.4222,0.4316,0.4346,0.4429,0.4509,0.4534,0.4655,0.4803,0.4855,0.4939,0.4952,0.4914,0.5109,0.4858,0.4863,0.4903,0.4876,0.4739,0.4602,0.5285,0.529,0.5294,0,0.3974,0.3991,0.4071,0.4081,0.4114,0.4169,0.42,0.4313,0.4367,0.4561,0.4602,0.481,0.4933,0.5157,0.5252,0.5346,0.5116,0.5192,0.5066,0.4929,0.4915,0.4686,0.4558,0.4801,0.4801,0.4801,0.48,0,0.3925,0.3951,0.399,0.4016,0.4049,0.4096,0.4175,0.421,0.4361,0.4471,0.4652,0.478,0.5104,0.515,0.5379,0.5385,0.4944,0.5207,0.5071,0.4585,0.431,0.4183,0.4722,0.48,0.48,0.48,0.48,0.48,0.3876,0.3885,0.3925,0.3938,0.3983,0.4008,0.3992,0.4113,0.4212,0.4342,0.4575,0.4706,0.4903,0.523,0.5242,0.5153,0.5126,0.4916,0.4906,0.4694,0.4532,0.5145,0.5289,0.5292,0.5294,0.5296,0.5298,0,0.3786,0.3812,0.3836,0.3848,0.3843,0.3908,0.3952,0.391,0.3982,0.4209,0.4367,0.4512,0.4622,0.4742,0.4874,0.4782,0.4459,0.4625,0.411,0.401,0.4533,0.4486,0.4454,0.4454,0.4454,0.4454,0.4454,0.4454,0.3741,0.3727,0.3743,0.3698,0.3701,0.3631,0.3617,0.3613,0.3709,0.3799,0.3884,0.4045,0.4297,0.4521,0.4464,0.4363,0.3993,0.3875,0.3893,0.4144,0.4161,0.4178,0.4118,0.401,0.4009,0.306,0.3054,0.3049]},{"header":{"parameterUnit":"m.s-1","parameterCategory":2,"la1":30.2991,"la2":30.254,"lo1":-89.0895,"lo2":-89.0444,"dy":0.0017,"dx":0.0017,"nx":28,"ny":28,"refTime":"2024-05-09T21:00:00:Z","depth":"0","parameterNumber":3,"parameterNumberName":"V-component_of_CURRENTS"},"data":[0,0,0,0,0,0,0,0,0,0,0,0,0,0,0,0,0,0,0,0,0,0,0,0,0,0,0,0,0,0,0,0,0,0,0,0,0,0,0,0,0,0,0,0,0,0,0,0,0,0,0,0,0,0,0,0,0,0,-0.1089,-0.109,0,-0.1217,-0.122,-0.1222,-0.1308,-0.1308,-0.1308,-0.1307,-0.1518,-0.1524,-0.1529,0,0,0,0,0,0,0,0,0,0,0,0,0,-0.1004,-0.1006,-0.1089,-0.109,-0.1091,-0.1217,-0.122,-0.1222,-0.1308,-0.1308,-0.1308,-0.1307,-0.1516,-0.1523,-0.153,0,0,0,0,0,0,0,0,0,0,0,0,0,-0.1086,-0.1006,-0.1089,-0.1142,-0.1148,-0.1217,-0.122,-0.1223,-0.1308,-0.1308,-0.1308,-0.1307,-0.1514,-0.1522,-0.1531,-0.159,0,0,-0.1557,-0.1561,0,0,0,0,0,0,0,0,-0.1081,-0.109,-0.1134,-0.1139,-0.1145,-0.1239,-0.1267,-0.1347,-0.1308,-0.1257,-0.1307,-0.1307,-0.1427,-0.1443,-0.1479,-0.16,-0.1609,-0.1558,-0.1563,-0.1567,-0.157,0,0,0,0,0,0,0,-0.1075,-0.1085,-0.1149,-0.1134,-0.1141,-0.1189,-0.12,-0.1283,-0.135,-0.1261,-0.1265,-0.1266,-0.1432,-0.147,-0.1484,-0.1612,-0.1558,-0.1566,-0.1571,-0.1574,-0.184,-0.1842,0,0,0,0,0,0,-0.1038,-0.108,-0.1145,-0.1152,-0.1102,-0.1189,-0.1203,-0.1216,-0.1348,-0.1364,-0.1266,-0.1269,-0.1455,-0.1474,-0.1492,-0.1622,-0.1567,-0.1575,-0.158,-0.1838,-0.184,-0.1842,0,0,0,0,0,0,-0.1036,-0.1043,-0.1139,-0.1111,-0.1125,-0.1189,-0.1205,-0.1219,-0.1257,-0.1349,-0.1369,-0.1288,-0.1456,-0.148,-0.1588,-0.1629,-0.1579,-0.1587,-0.1836,-0.1839,-0.1841,-0.185,0,0,0,0,0,0,-0.1033,-0.1042,-0.1058,-0.1109,-0.1125,-0.118,-0.1205,-0.1221,-0.1253,-0.1259,-0.1375,-0.1394,-0.1458,-0.1574,-0.1596,-0.164,-0.1594,-0.1834,-0.1837,-0.1841,-0.1847,-0.1852,-0.1857,0,0,0,0,0,-0.103,-0.1035,-0.1059,-0.1067,-0.114,-0.118,-0.1195,-0.1245,-0.1254,-0.1278,-0.1366,-0.1391,-0.1611,-0.1584,-0.1609,-0.1656,-0.1832,-0.1836,-0.184,-0.1845,-0.1851,-0.1857,0,0,0,0,0,0,-0.0992,-0.1045,-0.1072,-0.1091,-0.1134,-0.1191,-0.1206,-0.1241,-0.1329,-0.133,-0.1425,-0.1453,-0.1559,-0.1605,-0.1571,-0.1741,-0.1722,-0.1731,-0.1716,-0.1723,-0.1728,-0.1645,-0.1601,0,0,0,0,0,-0.0993,-0.1019,-0.107,-0.1084,-0.1097,-0.1154,-0.118,-0.1208,-0.1277,-0.1313,-0.1404,-0.1497,-0.1597,-0.1654,-0.1739,-0.1839,-0.181,-0.1881,-0.1886,-0.189,-0.184,-0.1814,-0.181,-0.1856,-0.1856,-0.1856,0,0,-0.096,-0.1009,-0.1011,-0.1079,-0.1111,-0.1152,-0.1171,-0.1191,-0.125,-0.1324,-0.144,-0.1517,-0.1625,-0.174,-0.1791,-0.1785,-0.1877,-0.1895,-0.1898,-0.1844,-0.1817,-0.1812,-0.1807,-0.1859,-0.1858,-0.1858,0,0,-0.0916,-0.0968,-0.0973,-0.1021,-0.1072,-0.113,-0.1132,-0.1201,-0.1257,-0.1366,-0.1437,-0.1521,-0.169,-0.1766,-0.1829,-0.1905,-0.1897,-0.1952,-0.1922,-0.19,-0.1894,-0.1888,-0.1894,-0.1888,-0.1961,-0.1961,-0.1961,0,-0.0878,-0.091,-0.0977,-0.101,-0.1043,-0.1119,-0.1133,-0.1219,-0.1326,-0.1353,-0.1398,-0.159,-0.1693,-0.1804,-0.1851,-0.1913,-0.1898,-0.1895,-0.19,-0.1894,-0.1887,-0.1894,-0.1887,-0.1962,-0.1962,-0.1962,-0.1962,0,-0.0841,-0.0882,-0.0882,-0.0973,-0.1032,-0.1044,-0.1159,-0.1224,-0.1302,-0.1367,-0.1471,-0.1607,-0.1693,-0.1776,-0.1854,-0.1886,-0.1893,-0.1901,-0.187,-0.1882,-0.1891,-0.1884,-0.1963,-0.1963,-0.1963,-0.1962,0,0,-0.0699,-0.0827,-0.0825,-0.0865,-0.1005,-0.1032,-0.1145,-0.1233,-0.1251,-0.1392,-0.1412,-0.1622,-0.1635,-0.1703,-0.1804,-0.182,-0.1822,-0.1845,-0.1844,-0.1824,-0.178,-0.1673,-0.1655,-0.1822,-0.182,-0.1818,-0.182,0,-0.064,-0.0674,-0.078,-0.0833,-0.0859,-0.0989,-0.1076,-0.1173,-0.127,-0.132,-0.1438,-0.1507,-0.1634,-0.1658,-0.1701,-0.1774,-0.1794,-0.182,-0.1792,-0.1791,-0.167,-0.1639,-0.1451,-0.1423,-0.1813,-0.1811,-0.181,0,-0.0559,-0.0611,-0.0626,-0.0751,-0.0766,-0.0822,-0.0922,-0.1009,-0.1118,-0.117,-0.1244,-0.1335,-0.1426,-0.1501,-0.1602,-0.1608,-0.168,-0.174,-0.1741,-0.1609,-0.1666,-0.1468,-0.1395,-0.1655,-0.1799,-0.18,-0.1801,0,-0.0408,-0.0503,-0.0511,-0.0552,-0.0703,-0.0725,-0.0803,-0.0923,-0.0949,-0.1042,-0.102,-0.1167,-0.1186,-0.1299,-0.1464,-0.1518,-0.1525,-0.1614,-0.159,-0.1587,-0.1397,-0.1377,-0.1528,-0.1632,-0.1632,-0.1632,-0.1632,0,-0.0315,-0.0321,-0.0423,-0.0432,-0.0421,-0.0578,-0.0572,-0.0659,-0.0723,-0.0676,-0.0894,-0.0847,-0.112,-0.1189,-0.1366,-0.1425,-0.1444,-0.1538,-0.155,-0.1404,-0.1385,-0.1577,-0.1738,-0.1632,-0.1632,-0.1632,-0.1632,0,-0.0162,-0.0226,-0.0234,-0.0335,-0.0349,-0.0334,-0.0407,-0.0392,-0.0475,-0.0406,-0.0413,-0.0572,-0.0643,-0.0913,-0.1081,-0.1244,-0.1428,-0.1377,-0.1202,-0.1191,-0.1408,-0.1573,-0.1631,-0.1732,-0.1345,-0.1342,-0.134,0,-0.0091,-0.0074,-0.0113,-0.0087,-0.0126,-0.0131,-0.0119,-0.0232,-0.0203,-0.0193,-0.0113,-0.0194,-0.0155,-0.0403,-0.0707,-0.0958,-0.1262,-0.1007,-0.1072,-0.1346,-0.1543,-0.1678,-0.1772,-0.087,-0.0864,-0.0859,-0.0854,0,0.0031,0.0037,0.003,0.0101,0.0134,0.0151,0.0164,0.0242,0.0177,0.0294,0.046,0.0512,0.0279,0.0122,-0.0293,-0.0485,-0.1108,-0.0906,-0.1216,-0.1171,-0.1294,-0.1418,-0.1004,-0.0809,-0.0813,-0.0817,-0.0819,-0.0821,0.0143,0.0189,0.0211,0.0284,0.0342,0.0439,0.0535,0.0612,0.0783,0.1027,0.1001,0.1233,0.0835,0.0343,-0.0026,-0.0633,-0.0758,-0.0823,-0.1003,-0.112,-0.1188,-0.0673,-0.0474,-0.0477,-0.0479,-0.0481,-0.0482,0,0.0276,0.0311,0.0381,0.0486,0.0616,0.0582,0.0731,0.0887,0.1217,0.1496,0.1744,0.1788,0.1323,0.0666,-0.0168,-0.0656,-0.0901,-0.0977,-0.1169,-0.127,-0.0803,-0.0755,-0.0571,-0.0571,-0.057,-0.057,-0.057,-0.057,0.0345,0.0441,0.0472,0.071,0.0804,0.1006,0.1131,0.1412,0.1656,0.2138,0.2387,0.25,0.1991,0.0402,-0.0742,-0.1016,-0.1477,-0.1446,-0.1815,-0.156,-0.1563,-0.1566,-0.1563,-0.1551,-0.1553,-0.2153,-0.2159,-0.2164]}],[{"header":{"parameterUnit":"m.s-1","parameterCategory":2,"la1":30.2991,"la2":30.254,"lo1":-89.0895,"lo2":-89.0444,"dy":0.0017,"dx":0.0017,"nx":28,"ny":28,"refTime":"2024-05-09T21:00:00:Z","depth":"2","parameterNumber":2,"parameterNumberName":"U-component_of_CURRENTS"},"data":[0,0,0,0,0,0,0,0,0,0,0,0,0,0,0,0,0,0,0,0,0,0,0,0,0,0,0,0,0,0,0,0,0,0,0,0,0,0,0,0,0,0,0,0,0,0,0,0,0,0,0,0,0,0,0,0,0,0,0.3011,0.3012,0,0.3095,0.3096,0.3097,0.3169,0.317,0.3171,0.3172,0.3229,0.323,0.323,0,0,0,0,0,0,0,0,0,0,0,0,0,0.2914,0.2915,0.3011,0.3012,0.3014,0.3095,0.3096,0.3097,0.3169,0.317,0.3171,0.3172,0.3229,0.3229,0.323,0,0,0,0,0,0,0,0,0,0,0,0,0,0.2971,0.2915,0.3011,0.306,0.3066,0.3095,0.3096,0.3097,0.3168,0.317,0.3171,0.3173,0.3228,0.3229,0.323,0.3207,0,0,0.3233,0.3234,0,0,0,0,0,0,0,0,0.2967,0.2974,0.3052,0.3057,0.3063,0.3124,0.3083,0.3133,0.3168,0.3128,0.3172,0.3173,0.3191,0.3196,0.3206,0.321,0.3213,0.3233,0.3234,0.3234,0.3235,0,0,0,0,0,0,0,0.2963,0.2971,0.3043,0.3053,0.306,0.3079,0.3088,0.3093,0.3149,0.3131,0.3137,0.3149,0.3194,0.3205,0.3208,0.3213,0.3233,0.3234,0.3235,0.3235,0.3334,0.3336,0,0,0,0,0,0,0.2955,0.2967,0.304,0.3045,0.302,0.3079,0.309,0.3102,0.3149,0.3159,0.3147,0.3152,0.3203,0.3207,0.321,0.3313,0.3234,0.3235,0.3236,0.3332,0.3334,0.3336,0,0,0,0,0,0,0.2953,0.2961,0.3037,0.3009,0.3021,0.308,0.3092,0.3103,0.3144,0.3162,0.3171,0.3182,0.3204,0.3209,0.3235,0.3311,0.3236,0.3237,0.3329,0.3333,0.3335,0.3437,0,0,0,0,0,0,0.2949,0.2959,0.2995,0.3009,0.3022,0.3075,0.3092,0.3103,0.3148,0.3156,0.3194,0.3199,0.3206,0.3233,0.3236,0.3311,0.3237,0.3327,0.3331,0.3334,0.3431,0.3443,0.3453,0,0,0,0,0,0.2945,0.2992,0.2996,0.3007,0.3059,0.3076,0.3085,0.313,0.3149,0.3171,0.3192,0.32,0.3261,0.3234,0.3237,0.3315,0.3325,0.333,0.3334,0.3426,0.3441,0.3453,0,0,0,0,0,0,0.2957,0.3004,0.3009,0.3064,0.3074,0.309,0.3119,0.3142,0.3176,0.3185,0.3202,0.3209,0.3263,0.3263,0.3233,0.3354,0.3304,0.3309,0.3373,0.3387,0.3398,0.3398,0.3238,0,0,0,0,0,0.2974,0.301,0.3041,0.3065,0.308,0.3098,0.3121,0.3143,0.3162,0.3182,0.3211,0.3243,0.3278,0.331,0.3323,0.3377,0.3376,0.3436,0.3447,0.3457,0.3459,0.3527,0.3545,0.3352,0.3352,0.3351,0,0,0.2963,0.3001,0.3014,0.3069,0.3073,0.3114,0.3115,0.3143,0.3195,0.3178,0.3256,0.3267,0.3293,0.3359,0.3389,0.3378,0.3509,0.3463,0.3471,0.3468,0.3533,0.3552,0.3569,0.3355,0.3354,0.3354,0,0,0.2957,0.3004,0.3038,0.3077,0.3116,0.3129,0.3143,0.318,0.3225,0.3271,0.3292,0.3338,0.3386,0.3437,0.3464,0.354,0.3549,0.3568,0.365,0.3717,0.3733,0.3748,0.3759,0.3773,0.3596,0.3596,0.3597,0,0.2959,0.3008,0.3042,0.3102,0.3138,0.3141,0.3183,0.323,0.3276,0.3311,0.3307,0.3396,0.3425,0.3524,0.3575,0.3569,0.3591,0.3599,0.3733,0.3747,0.376,0.3768,0.3783,0.3602,0.3601,0.3601,0.36,0,0.299,0.3046,0.3062,0.3139,0.3181,0.3207,0.3272,0.3321,0.3355,0.3395,0.3476,0.3505,0.3561,0.3605,0.3623,0.3754,0.3731,0.3722,0.3699,0.3786,0.3788,0.3802,0.361,0.3608,0.3606,0.3605,0,0,0.2958,0.3064,0.308,0.3117,0.3213,0.3234,0.3327,0.3397,0.3466,0.3514,0.3606,0.368,0.3688,0.372,0.3757,0.3843,0.3966,0.3851,0.3852,0.3862,0.4093,0.4002,0.4007,0.4001,0.4004,0.4007,0.4052,0,0.2968,0.3077,0.3131,0.3201,0.3255,0.3312,0.3397,0.3473,0.3536,0.3633,0.3682,0.377,0.374,0.3798,0.3868,0.3946,0.401,0.3952,0.4006,0.4006,0.3917,0.4024,0.3751,0.3763,0.4065,0.4067,0.4069,0,0.2992,0.3076,0.3166,0.3252,0.3278,0.334,0.346,0.3524,0.3661,0.3728,0.3801,0.3842,0.3964,0.3939,0.4058,0.4031,0.407,0.4113,0.4115,0.4003,0.3942,0.3728,0.3776,0.4092,0.409,0.4088,0.4087,0,0.2956,0.3079,0.3146,0.3195,0.3317,0.3379,0.343,0.3563,0.3618,0.3806,0.3875,0.3975,0.4054,0.4114,0.4183,0.4148,0.4317,0.426,0.4191,0.4182,0.3943,0.3908,0.4348,0.4348,0.4348,0.4348,0.4348,0,0.2948,0.3,0.3154,0.3202,0.3265,0.3382,0.3456,0.354,0.3695,0.3769,0.3911,0.3975,0.4119,0.4211,0.4237,0.4257,0.434,0.4219,0.4208,0.3967,0.3936,0.4209,0.4193,0.4349,0.4349,0.4349,0.4349,0,0.2872,0.2974,0.3043,0.3204,0.3238,0.329,0.3402,0.3486,0.3654,0.3772,0.3842,0.4014,0.4122,0.4232,0.4366,0.4319,0.4366,0.4356,0.4044,0.3996,0.4155,0.4143,0.4239,0.4237,0.4235,0.4233,0.4232,0,0.284,0.2889,0.3001,0.3042,0.3113,0.321,0.3279,0.3434,0.3522,0.3745,0.3794,0.398,0.4042,0.4183,0.4217,0.4257,0.433,0.4005,0.3876,0.4174,0.4155,0.4146,0.4137,0.3586,0.358,0.3575,0.357,0,0.2791,0.283,0.288,0.2957,0.3036,0.3071,0.319,0.3225,0.3435,0.3533,0.3641,0.372,0.3913,0.3828,0.3958,0.3927,0.3974,0.3891,0.4331,0.3661,0.3565,0.3543,0.3555,0.3522,0.3527,0.3531,0.3533,0.3535,0.2729,0.273,0.2805,0.2845,0.2913,0.2931,0.2918,0.3056,0.3091,0.322,0.3377,0.343,0.3558,0.3556,0.3485,0.3472,0.3707,0.3553,0.3567,0.3588,0.3509,0.3416,0.3327,0.333,0.3334,0.3336,0.3339,0,0.266,0.267,0.2706,0.2726,0.2735,0.2824,0.2857,0.2823,0.2802,0.2969,0.3039,0.2884,0.2883,0.3002,0.2919,0.2947,0.2901,0.2814,0.2729,0.2782,0.2828,0.2706,0.2314,0.2309,0.2306,0.2302,0,0,0.2611,0.2602,0.2596,0.2552,0.2585,0.2541,0.2517,0.2464,0.2502,0.2445,0.2486,0.2764,0.2926,0.2566,0.2554,0.2406,0.2554,0.2319,0.316,0.3113,0.3152,0.3296,0.3176,0,0,0,0,0]},{"header":{"parameterUnit":"m.s-1","parameterCategory":2,"la1":30.2991,"la2":30.254,"lo1":-89.0895,"lo2":-89.0444,"dy":0.0017,"dx":0.0017,"nx":28,"ny":28,"refTime":"2024-05-09T21:00:00:Z","depth":"2","parameterNumber":3,"parameterNumberName":"V-component_of_CURRENTS"},"data":[0,0,0,0,0,0,0,0,0,0,0,0,0,0,0,0,0,0,0,0,0,0,0,0,0,0,0,0,0,0,0,0,0,0,0,0,0,0,0,0,0,0,0,0,0,0,0,0,0,0,0,0,0,0,0,0,0,0,0.0354,0.0353,0,0.0284,0.0283,0.0283,0.019,0.0189,0.0187,0.0186,0.0058,0.0056,0.0055,0,0,0,0,0,0,0,0,0,0,0,0,0,0.0361,0.0362,0.0354,0.0353,0.0352,0.0284,0.0283,0.0282,0.019,0.0189,0.0187,0.0185,0.0059,0.0057,0.0054,0,0,0,0,0,0,0,0,0,0,0,0,0,0.0332,0.0362,0.0354,0.0298,0.0292,0.0284,0.0283,0.0282,0.0191,0.0189,0.0186,0.0184,0.006,0.0057,0.0054,0.0083,0,0,0.0045,0.0044,0,0,0,0,0,0,0,0,0.0334,0.0332,0.0307,0.0302,0.0295,0.0243,0.0239,0.0212,0.0191,0.023,0.0186,0.0183,0.0116,0.0109,0.0102,0.0077,0.0071,0.0045,0.0043,0.0042,0.0041,0,0,0,0,0,0,0,0.0336,0.0334,0.0327,0.0306,0.0299,0.026,0.0254,0.0234,0.0186,0.0226,0.0219,0.0212,0.0112,0.0105,0.0098,0.0069,0.0045,0.0042,0.0041,0.0039,0.0021,0.0023,0,0,0,0,0,0,0.0349,0.0337,0.0329,0.0325,0.0309,0.0262,0.0255,0.0263,0.0187,0.0174,0.0214,0.0208,0.0111,0.0102,0.0093,0.0115,0.0042,0.0039,0.0038,0.002,0.0022,0.0023,0,0,0,0,0,0,0.035,0.035,0.0332,0.0327,0.0322,0.0265,0.0274,0.0262,0.0246,0.0179,0.0163,0.0207,0.0109,0.0097,0.0099,0.0109,0.0038,0.0035,0.0019,0.0021,0.0022,0.0162,0,0,0,0,0,0,0.0351,0.0351,0.0349,0.0329,0.0323,0.0332,0.0275,0.0263,0.0245,0.0236,0.0169,0.0155,0.0106,0.0104,0.0096,0.0103,0.0033,0.0017,0.002,0.0022,0.0156,0.0169,0.0179,0,0,0,0,0,0.0352,0.0361,0.035,0.0348,0.0327,0.0333,0.0327,0.0277,0.0247,0.0252,0.0223,0.0156,0.0111,0.0104,0.0094,0.0101,0.0016,0.0019,0.0022,0.0151,0.0166,0.0179,0,0,0,0,0,0,0.0364,0.0352,0.0339,0.0344,0.0342,0.0317,0.0313,0.0288,0.0269,0.026,0.0194,0.0181,0.0183,0.013,0.0123,0.0101,0.0044,0.0045,0.0145,0.0159,0.0171,0.0153,0.0031,0,0,0,0,0,0.0371,0.0382,0.0364,0.038,0.0376,0.035,0.0341,0.032,0.0304,0.0291,0.0254,0.0211,0.019,0.0166,0.0143,0.0142,0.0074,0.0131,0.0143,0.0154,0.0132,0.0037,0.0037,0.0032,0.0032,0.0032,0,0,0.0394,0.038,0.0393,0.0384,0.0377,0.0406,0.0339,0.0345,0.0367,0.0284,0.0303,0.0263,0.0205,0.0208,0.0199,0.016,0.0136,0.0157,0.0167,0.0139,0.004,0.004,0.004,0.0034,0.0034,0.0034,0,0,0.044,0.0426,0.0445,0.0454,0.0444,0.0442,0.0449,0.0436,0.0417,0.0443,0.0385,0.0348,0.0331,0.0275,0.0247,0.0305,0.0213,0.03,0.033,0.024,0.0239,0.0237,0.0221,0.0216,0.029,0.0291,0.0291,0,0.0447,0.0487,0.0455,0.0478,0.0506,0.047,0.052,0.0508,0.05,0.049,0.0465,0.0409,0.0353,0.0328,0.034,0.0327,0.0288,0.0288,0.0254,0.025,0.0245,0.0228,0.0221,0.0298,0.0297,0.0296,0.0296,0,0.0516,0.0549,0.057,0.0602,0.0624,0.0667,0.066,0.0663,0.0647,0.0625,0.0601,0.0529,0.0475,0.0457,0.0415,0.036,0.0354,0.0295,0.0219,0.0254,0.0235,0.0225,0.0308,0.0305,0.0303,0.0301,0,0,0.0527,0.06,0.0607,0.0649,0.0699,0.0721,0.0769,0.0785,0.078,0.0753,0.0733,0.068,0.0605,0.0565,0.0493,0.04,0.0353,0.0336,0.0328,0.0322,0.021,0.0181,0.0167,0.0289,0.0286,0.0284,0.0236,0,0.0589,0.0671,0.0698,0.0807,0.0862,0.0867,0.0905,0.0909,0.0891,0.0857,0.0756,0.0717,0.0659,0.0613,0.0523,0.0386,0.0321,0.0375,0.0172,0.0167,0.0136,0.015,0.0173,0.0126,0.0225,0.0223,0.0222,0,0.0648,0.0697,0.0808,0.0902,0.092,0.0967,0.1008,0.104,0.0988,0.0952,0.0891,0.0817,0.0707,0.0625,0.0432,0.0474,0.0354,0.0246,0.0241,0.014,0.0115,0.009,0.0102,0.0204,0.0205,0.0206,0.0208,0,0.0679,0.078,0.0873,0.0913,0.0997,0.1022,0.1059,0.1055,0.1078,0.0996,0.0997,0.0857,0.0789,0.0608,0.0425,0.0417,0.02,0.0158,0.0038,0.0039,-0.0026,-0.0029,0.0004,0.0005,0.0005,0.0005,0.0005,0,0.0749,0.0815,0.0878,0.0929,0.1017,0.1048,0.111,0.111,0.1097,0.1138,0.1039,0.1036,0.0771,0.0642,0.0449,0.0231,0.0229,0.0039,0.0001,0.0034,0.0037,0.0015,0.0017,0.0003,0.0003,0.0004,0.0004,0,0.0776,0.083,0.0928,0.1006,0.1044,0.1091,0.1188,0.1214,0.1201,0.1248,0.1234,0.115,0.0986,0.0752,0.045,0.0285,0.0051,-0.0026,0.007,0.0041,-0.0043,-0.0033,-0.0164,-0.0166,-0.0168,-0.0169,-0.0171,0,0.0804,0.0856,0.0979,0.1042,0.108,0.116,0.1228,0.1257,0.1304,0.1348,0.1375,0.1254,0.1186,0.0779,0.0416,0.0081,0.005,-0.01,-0.0149,-0.0049,-0.0072,-0.0059,-0.0047,-0.0135,-0.0136,-0.0136,-0.0137,0,0.0847,0.0877,0.0954,0.1088,0.1175,0.1296,0.1389,0.1443,0.149,0.1533,0.1572,0.1521,0.1173,0.0809,0.0351,0.014,-0.0056,-0.0124,-0.0081,-0.0102,-0.0029,-0.0048,-0.0036,-0.0142,-0.0142,-0.0141,-0.0141,-0.0141,0.0866,0.0917,0.1018,0.1141,0.1253,0.1399,0.1494,0.1584,0.1684,0.1744,0.1702,0.1624,0.126,0.0648,0.0266,-0.0122,-0.0097,-0.0228,-0.0223,-0.0218,-0.0214,-0.0149,-0.0278,-0.0279,-0.0279,-0.0279,-0.0279,0,0.0898,0.0963,0.1074,0.1224,0.1336,0.1412,0.1584,0.1656,0.1771,0.1824,0.1822,0.1474,0.1088,0.0684,0.0081,-0.0267,-0.0275,-0.0349,-0.0293,-0.0285,-0.0278,-0.0275,-0.0357,-0.0358,-0.036,-0.0361,0,0,0.0922,0.1017,0.1075,0.1261,0.1364,0.1537,0.1639,0.1751,0.1818,0.1839,0.1788,0.1688,0.1204,0.0759,0.0292,-0.0049,-0.0078,-0.0096,0.0006,0.0136,0.0146,-0.0169,-0.015,0,0,0,0,0]}],[{"header":{"parameterUnit":"m.s-1","parameterCategory":2,"la1":30.2991,"la2":30.254,"lo1":-89.0895,"lo2":-89.0444,"dy":0.0017,"dx":0.0017,"nx":28,"ny":28,"refTime":"2024-05-09T21:00:00:Z","depth":"4","parameterNumber":2,"parameterNumberName":"U-component_of_CURRENTS"},"data":[0,0,0,0,0,0,0,0,0,0,0,0,0,0,0,0,0,0,0,0,0,0,0,0,0,0,0,0,0,0,0,0,0,0,0,0,0,0,0,0,0,0,0,0,0,0,0,0,0,0,0,0,0,0,0,0,0,0,0.1646,0.1647,0,0.1698,0.1698,0.1699,0.1724,0.1725,0.1725,0.1725,0.1823,0.1826,0.1828,0,0,0,0,0,0,0,0,0,0,0,0,0,0.1604,0.1604,0.1646,0.1647,0.1648,0.1698,0.1698,0.1699,0.1724,0.1725,0.1725,0.1725,0.1823,0.1825,0.1828,0,0,0,0,0,0,0,0,0,0,0,0,0,0.1632,0.1604,0.1646,0.167,0.1673,0.1698,0.1698,0.1699,0.1724,0.1725,0.1725,0.1726,0.1822,0.1825,0.1828,0.1838,0,0,0.1839,0.184,0,0,0,0,0,0,0,0,0.163,0.1633,0.1665,0.1668,0.1672,0.1709,0.172,0.1749,0.1724,0.17,0.1725,0.1726,0.1792,0.1797,0.18,0.1843,0.1847,0.1839,0.1841,0.1843,0.1844,0,0,0,0,0,0,0,0.1628,0.1631,0.1663,0.1666,0.167,0.169,0.1694,0.1725,0.174,0.1702,0.1705,0.1717,0.1793,0.1796,0.1802,0.1849,0.1839,0.1842,0.1844,0.1845,0.1988,0.1989,0,0,0,0,0,0,0.1627,0.1629,0.1661,0.1665,0.1656,0.1691,0.1695,0.1693,0.1739,0.1747,0.1717,0.1719,0.179,0.1798,0.1806,0.191,0.1843,0.1846,0.1848,0.1986,0.1988,0.199,0,0,0,0,0,0,0.1626,0.1629,0.1659,0.1652,0.1658,0.1691,0.1689,0.1694,0.1731,0.175,0.1758,0.1754,0.1791,0.1801,0.1868,0.1911,0.1847,0.185,0.1984,0.1987,0.1989,0.2062,0,0,0,0,0,0,0.1624,0.1628,0.1649,0.1652,0.1658,0.1688,0.1689,0.1695,0.1738,0.1741,0.1784,0.1791,0.1792,0.1863,0.1871,0.1915,0.1853,0.1982,0.1985,0.1988,0.2057,0.2067,0.2075,0,0,0,0,0,0.1622,0.1636,0.1649,0.1654,0.1677,0.1689,0.1694,0.1717,0.174,0.1754,0.1796,0.1792,0.1889,0.1867,0.1877,0.1922,0.198,0.1984,0.1988,0.2054,0.2065,0.2075,0,0,0,0,0,0,0.163,0.164,0.1654,0.1672,0.169,0.1695,0.1724,0.174,0.1783,0.1805,0.1819,0.183,0.1904,0.1903,0.1878,0.1971,0.1932,0.1938,0.1979,0.199,0.1998,0.2001,0.1856,0,0,0,0,0,0.1641,0.165,0.1666,0.1682,0.17,0.1722,0.1741,0.1756,0.1786,0.1806,0.1838,0.1878,0.192,0.1948,0.1978,0.2033,0.2038,0.2066,0.2075,0.2082,0.2091,0.2137,0.2151,0.2003,0.2003,0.2003,0,0,0.1648,0.1657,0.1664,0.1686,0.1707,0.1729,0.1734,0.1771,0.1802,0.1813,0.1881,0.1916,0.1943,0.2004,0.2036,0.2014,0.2128,0.2087,0.2094,0.2099,0.2143,0.2157,0.217,0.2005,0.2005,0.2005,0,0,0.1651,0.1678,0.1688,0.1706,0.1746,0.1761,0.1781,0.1813,0.1848,0.1911,0.1932,0.1998,0.2053,0.2082,0.2104,0.2181,0.2174,0.219,0.224,0.2285,0.2297,0.2308,0.2334,0.2347,0.2192,0.2192,0.2192,0,0.1667,0.1676,0.1696,0.1712,0.1737,0.178,0.1803,0.1841,0.1893,0.1935,0.1945,0.2065,0.209,0.2172,0.2198,0.2203,0.2218,0.2198,0.2297,0.2308,0.2318,0.2341,0.2354,0.2196,0.2196,0.2195,0.2195,0,0.1662,0.1692,0.1704,0.1736,0.1765,0.1795,0.1844,0.1899,0.1958,0.1995,0.2106,0.2154,0.2225,0.2244,0.2248,0.2338,0.2323,0.2304,0.2269,0.2337,0.2357,0.237,0.2202,0.2201,0.2199,0.2198,0,0,0.1643,0.1691,0.1703,0.173,0.1785,0.1806,0.1878,0.1951,0.2019,0.2095,0.2182,0.2271,0.2318,0.2345,0.2372,0.2411,0.2498,0.2394,0.2395,0.2418,0.2593,0.2454,0.2454,0.25,0.2503,0.2505,0.2578,0,0.1644,0.167,0.1703,0.1755,0.1778,0.1846,0.1909,0.1986,0.2066,0.216,0.2247,0.2341,0.2351,0.2408,0.2456,0.2493,0.2534,0.2479,0.2524,0.2525,0.2393,0.2465,0.2513,0.2587,0.259,0.2592,0.2593,0,0.1631,0.1654,0.1691,0.1774,0.1797,0.1842,0.1961,0.2031,0.2165,0.2233,0.2345,0.241,0.2521,0.2504,0.2617,0.2585,0.2601,0.2614,0.2617,0.247,0.241,0.2505,0.2615,0.2614,0.2612,0.2611,0.2609,0,0.1589,0.1656,0.1689,0.1709,0.1801,0.1858,0.1935,0.2059,0.2139,0.2297,0.2363,0.2497,0.2586,0.2636,0.2693,0.2665,0.2788,0.2744,0.2634,0.2624,0.2693,0.268,0.2813,0.2812,0.2812,0.2812,0.2812,0,0.1559,0.1602,0.1679,0.1695,0.1768,0.1852,0.196,0.2055,0.2198,0.229,0.2414,0.2494,0.2626,0.2709,0.2727,0.2729,0.2826,0.2657,0.264,0.2721,0.2711,0.2702,0.2688,0.2815,0.2814,0.2814,0.2813,0,0.1507,0.1558,0.1609,0.1708,0.1745,0.1809,0.196,0.2031,0.2184,0.2305,0.2362,0.2529,0.2638,0.2735,0.283,0.2765,0.278,0.2752,0.2848,0.2834,0.2572,0.2561,0.262,0.2616,0.2613,0.261,0.2607,0,0.1474,0.1488,0.1594,0.1622,0.1673,0.1776,0.1837,0.2007,0.2082,0.2301,0.2341,0.2512,0.2604,0.263,0.2737,0.2774,0.2743,0.2723,0.2629,0.2578,0.2556,0.2551,0.2545,0.2602,0.2601,0.26,0.2599,0,0.1406,0.1463,0.1503,0.1554,0.1617,0.1676,0.1787,0.1829,0.2029,0.2177,0.2273,0.2342,0.2462,0.2544,0.2607,0.2619,0.2718,0.2685,0.2691,0.2602,0.2556,0.2537,0.2535,0.2587,0.2589,0.259,0.2591,0,0.1365,0.1374,0.1427,0.1473,0.1539,0.1554,0.1627,0.1715,0.1817,0.2063,0.2093,0.227,0.2439,0.2466,0.2518,0.2535,0.2485,0.2386,0.2406,0.2421,0.2324,0.2234,0.2164,0,0,0,0,0,0.13,0.1297,0.1328,0.1366,0.1429,0.1467,0.1577,0.1659,0.1851,0.1868,0.1981,0.2084,0.2178,0.2274,0.2252,0.2424,0.2488,0.2387,0.2381,0.252,0.2534,0.2439,0,0,0,0,0,0,0.1254,0.1278,0.1291,0.127,0.1279,0.1327,0.1391,0.151,0.1542,0.1745,0.1813,0.1965,0.2092,0.218,0.2218,0.2247,0.2201,0.2509,0.2504,0.2512,0.2524,0.2536,0.2443,0,0,0,0,0]},{"header":{"parameterUnit":"m.s-1","parameterCategory":2,"la1":30.2991,"la2":30.254,"lo1":-89.0895,"lo2":-89.0444,"dy":0.0017,"dx":0.0017,"nx":28,"ny":28,"refTime":"2024-05-09T21:00:00:Z","depth":"4","parameterNumber":3,"parameterNumberName":"V-component_of_CURRENTS"},"data":[0,0,0,0,0,0,0,0,0,0,0,0,0,0,0,0,0,0,0,0,0,0,0,0,0,0,0,0,0,0,0,0,0,0,0,0,0,0,0,0,0,0,0,0,0,0,0,0,0,0,0,0,0,0,0,0,0,0,0.0398,0.0398,0,0.0372,0.0372,0.0372,0.0359,0.0358,0.0358,0.0358,0.0318,0.0317,0.0316,0,0,0,0,0,0,0,0,0,0,0,0,0,0.0371,0.0372,0.0398,0.0398,0.0397,0.0372,0.0372,0.0372,0.0359,0.0358,0.0358,0.0358,0.0318,0.0317,0.0316,0,0,0,0,0,0,0,0,0,0,0,0,0,0.0369,0.0373,0.0398,0.0387,0.0385,0.0372,0.0372,0.0372,0.0359,0.0358,0.0358,0.0358,0.0319,0.0317,0.0316,0.0311,0,0,0.0311,0.0311,0,0,0,0,0,0,0,0,0.037,0.0371,0.0389,0.0387,0.0386,0.0367,0.0347,0.035,0.0359,0.037,0.0358,0.0358,0.0332,0.033,0.0327,0.0309,0.0307,0.0311,0.031,0.031,0.0309,0,0,0,0,0,0,0,0.037,0.0371,0.0389,0.0388,0.0386,0.036,0.036,0.0348,0.0354,0.0369,0.0368,0.0363,0.0332,0.0329,0.0326,0.0307,0.0311,0.031,0.0309,0.0309,0.0303,0.0304,0,0,0,0,0,0,0.0374,0.0372,0.039,0.0388,0.0375,0.0361,0.0361,0.0374,0.0354,0.035,0.0363,0.0362,0.0331,0.0328,0.0325,0.0348,0.031,0.0309,0.0308,0.0302,0.0303,0.0304,0,0,0,0,0,0,0.0374,0.0377,0.0391,0.0377,0.0377,0.0362,0.0377,0.0374,0.0381,0.0349,0.0345,0.0373,0.0331,0.0327,0.0331,0.0345,0.0308,0.0307,0.0301,0.0303,0.0304,0.0374,0,0,0,0,0,0,0.0374,0.0377,0.0391,0.0378,0.0378,0.0394,0.0377,0.0374,0.0377,0.0376,0.0356,0.0352,0.0331,0.0333,0.0329,0.0342,0.0306,0.0301,0.0302,0.0303,0.0371,0.0377,0.0383,0,0,0,0,0,0.0373,0.0394,0.0392,0.0394,0.0397,0.0395,0.0393,0.0381,0.0378,0.0386,0.0378,0.0353,0.0338,0.0333,0.0328,0.0341,0.03,0.0302,0.0303,0.0368,0.0376,0.0383,0,0,0,0,0,0,0.0388,0.0394,0.0392,0.0413,0.0409,0.0392,0.0396,0.0391,0.0391,0.0394,0.0366,0.0362,0.0368,0.0346,0.0341,0.0342,0.0313,0.0314,0.0364,0.0371,0.0377,0.0393,0.0304,0,0,0,0,0,0.0398,0.0421,0.0411,0.0432,0.0428,0.0415,0.0414,0.041,0.0405,0.0405,0.0392,0.0378,0.037,0.0365,0.0353,0.0357,0.0313,0.036,0.0366,0.0371,0.0381,0.032,0.0321,0.0309,0.0309,0.0309,0,0,0.0414,0.0416,0.0432,0.0437,0.043,0.0442,0.0415,0.0422,0.0443,0.04,0.0425,0.0401,0.0376,0.0382,0.0382,0.0367,0.0352,0.0373,0.0378,0.0385,0.0322,0.0323,0.0324,0.031,0.031,0.031,0,0,0.0442,0.0453,0.0473,0.0476,0.0471,0.0468,0.0475,0.0467,0.0474,0.0492,0.0464,0.0454,0.0445,0.0427,0.0418,0.045,0.0387,0.044,0.0484,0.0425,0.0426,0.0425,0.0373,0.0367,0.0442,0.0442,0.0443,0,0.0451,0.0488,0.0478,0.0491,0.0507,0.0486,0.0514,0.0516,0.0516,0.0525,0.0513,0.0493,0.047,0.047,0.0481,0.0464,0.0418,0.046,0.0433,0.0431,0.043,0.0376,0.0369,0.0446,0.0446,0.0445,0.0445,0,0.0492,0.0523,0.0533,0.0556,0.0568,0.0591,0.0592,0.0608,0.0613,0.0607,0.0613,0.0577,0.0563,0.0549,0.0529,0.051,0.0476,0.0447,0.0414,0.0435,0.0377,0.0369,0.0451,0.045,0.0449,0.0448,0,0,0.0507,0.0554,0.0561,0.0591,0.0612,0.0628,0.0667,0.0691,0.0716,0.0702,0.0722,0.0698,0.0662,0.0649,0.0606,0.0556,0.0506,0.0503,0.0498,0.0452,0.0372,0.0326,0.0311,0.0463,0.0462,0.0461,0.0336,0,0.0541,0.0597,0.0616,0.0683,0.0712,0.0724,0.0766,0.0784,0.0788,0.0797,0.0753,0.0752,0.0705,0.0695,0.0639,0.0535,0.0486,0.0543,0.0358,0.0353,0.0309,0.0301,0.0458,0.0329,0.0327,0.0326,0.0325,0,0.057,0.0612,0.0685,0.0759,0.0774,0.0815,0.0877,0.0911,0.0911,0.0911,0.0887,0.0842,0.0783,0.0737,0.0575,0.0608,0.0507,0.0421,0.0413,0.0341,0.0291,0.0302,0.0308,0.0309,0.0311,0.0312,0.0313,0,0.0586,0.0661,0.0732,0.0756,0.0828,0.0875,0.0918,0.0945,0.0979,0.0975,0.0977,0.09,0.086,0.0722,0.0556,0.0558,0.0362,0.0338,0.0205,0.02,0.0249,0.025,0.0231,0.0231,0.0231,0.0232,0.0232,0,0.0613,0.0668,0.0749,0.0786,0.0879,0.0915,0.0998,0.1025,0.1055,0.1082,0.1032,0.1012,0.0851,0.0723,0.0568,0.0355,0.0367,0.021,0.0162,0.0282,0.0289,0.0242,0.0245,0.0227,0.0228,0.0229,0.023,0,0.0611,0.0666,0.0746,0.0845,0.0887,0.095,0.1057,0.1105,0.1127,0.1156,0.1158,0.1081,0.091,0.0734,0.0501,0.037,0.0173,0.0101,0.0248,0.021,0.005,0.0058,-0.0065,-0.0068,-0.007,-0.0072,-0.0074,0,0.0618,0.0659,0.0782,0.0839,0.0891,0.0993,0.1068,0.1138,0.1178,0.1184,0.1187,0.1063,0.098,0.0624,0.0435,0.0139,0.01,0.0005,0.0027,0.0052,0.0018,0.003,0.0041,-0.0078,-0.0078,-0.0079,-0.0079,0,0.0625,0.0669,0.0736,0.0852,0.0948,0.105,0.115,0.1184,0.1248,0.1262,0.1192,0.1035,0.0843,0.0598,0.0376,0.0164,0.0066,-0.002,-0.0016,0.0003,0.0036,0.0007,0.002,-0.0088,-0.0086,-0.0086,-0.0085,0,0.0628,0.0671,0.0761,0.0862,0.0975,0.1074,0.1135,0.1182,0.1229,0.1232,0.1196,0.1017,0.0923,0.0608,0.0394,0.0187,0.0131,0.0067,0.0065,0.0072,0.0147,0.0212,0.0097,0,0,0,0,0,0.063,0.0679,0.0767,0.0879,0.0983,0.1058,0.1175,0.1223,0.1277,0.1227,0.1216,0.1037,0.0729,0.0603,0.0384,0.0338,0.0092,0.0073,0.0017,-0.0132,-0.0123,-0.0062,0,0,0,0,0,0,0.0634,0.071,0.0758,0.0873,0.0943,0.1072,0.1152,0.1195,0.1165,0.1179,0.1019,0.0958,0.0661,0.0842,0.0368,0.0308,0.0237,-0.0061,-0.0066,-0.0137,-0.0129,-0.0122,-0.0056,0,0,0,0,0]}]]